Weather History for KHAI - January, 2012

Change the Weather History Date:

Monday, January 2, 2012

  Actual Average Record
Temperature  
Mean Temperature 24 °F -  
Max Temperature 28 °F 31 °F - (-1)
Min Temperature 21 °F 16 °F - (-1)
Degree Days  
Heating Degree Days 40    
Moisture  
Dew Point 23 °F    
Average Humidity 89    
Maximum Humidity 100    
Minimum Humidity 80    
Precipitation  
Precipitation 0.00 in - - ()
Sea Level Pressure  
Sea Level Pressure 30.03 in    
Wind  
Wind Speed 14 mph (WNW)    
Max Wind Speed 20 mph    
Max Gust Speed 30 mph    
Visibility 4 miles    
Events Snow    
Averages and records for this station are not official NWS values.
T = Trace of Precipitation, MM = Missing Value Source: NWS Daily Summary

Daily Weather History Graph

Daily Weather History Graph

Search for Another Location

Airport or City:

Trip Planner

Search our weather history database for the weather conditions in past years. The results will help you decide how hot, cold, wet, or windy it might be!

Date:

Astronomy

Jan. 02, 2012 Rise Set
Actual Time 8:10 AM EST 5:22 PM EST
Civil Twilight 7:38 AM EST 5:53 PM EST
Nautical Twilight 7:03 AM EST 6:28 PM EST
Astronomical Twilight 6:29 AM EST 7:02 PM EST
Moon 12:40 PM EST (1/2) 1:59 AM EST (1/2)
Length of Visible Light 10h 14m
Length of Day
9h 11m
Waxing Gibbous, 63% of the Moon is Illuminated
Jan 2
Waxing Gibbous
Jan 9
Full
Jan 16
Last Quarter
Jan 23
New
Jan 30
First Quarter

Hourly Weather History & Observations

Time (EST) Temp. Windchill Dew Point Humidity Pressure Visibility Wind Dir Wind Speed Gust Speed Precip Events Conditions
12:15 AM 28.4 °F 16.6 °F 26.6 °F 93% 29.92 in 7.0 mi West 16.1 mph 21.9 mph N/A Snow Light Snow
12:35 AM 28.4 °F 17.5 °F 26.6 °F 93% 29.92 in 7.0 mi West 13.8 mph 17.3 mph N/A Snow Light Snow
1:15 AM 28.4 °F 15.4 °F 26.6 °F 93% 29.92 in 7.0 mi West 19.6 mph 29.9 mph N/A   Overcast
1:35 AM 28.4 °F 18.0 °F 26.6 °F 93% 29.92 in 10.0 mi West 12.7 mph 18.4 mph N/A   Overcast
1:54 AM 28.4 °F 16.6 °F 26.6 °F 93% 29.92 in 7.0 mi West 16.1 mph 20.7 mph N/A Snow Light Snow
2:15 AM 28.4 °F 16.6 °F 26.6 °F 93% 29.93 in 2.5 mi West 16.1 mph 21.9 mph N/A Snow Light Snow
2:35 AM 28.4 °F 17.5 °F 26.6 °F 93% 29.94 in 3.0 mi West 13.8 mph - N/A Snow Light Snow
2:54 AM 28.4 °F 17.5 °F 26.6 °F 93% 29.94 in 2.0 mi WNW 13.8 mph - N/A Snow Light Snow
3:15 AM 28.4 °F 17.5 °F 26.6 °F 93% 29.94 in 1.2 mi WNW 13.8 mph 19.6 mph N/A Snow Snow
3:34 AM 28.4 °F 18.0 °F 26.6 °F 93% 29.94 in 1.8 mi WNW 12.7 mph - N/A Snow Light Snow
3:55 AM 28.4 °F 17.0 °F 26.6 °F 93% 29.94 in 1.2 mi WNW 15.0 mph 21.9 mph N/A Snow Light Snow
4:15 AM 28.4 °F 16.6 °F 26.6 °F 93% 29.94 in 2.5 mi West 16.1 mph - N/A Snow Light Snow
4:34 AM 26.6 °F 13.8 °F 26.6 °F 100% 29.94 in 1.5 mi West 17.3 mph - N/A Snow Light Snow
4:55 AM 26.6 °F 13.1 °F 24.8 °F 93% 29.94 in 2.0 mi West 19.6 mph - N/A Snow Light Snow
5:35 AM 26.6 °F 14.3 °F 24.8 °F 93% 29.94 in 1.2 mi West 16.1 mph 21.9 mph N/A Snow Light Snow
5:55 AM 26.6 °F 14.3 °F 23.0 °F 86% 29.94 in 3.0 mi WNW 16.1 mph 21.9 mph N/A Snow Light Snow
6:14 AM 26.6 °F 16.2 °F 23.0 °F 86% 29.94 in 4.0 mi WNW 11.5 mph - N/A Snow Light Snow
6:35 AM 26.6 °F 14.3 °F 23.0 °F 86% 29.95 in 5.0 mi WNW 16.1 mph 23.0 mph N/A Snow Light Snow
6:55 AM 24.8 °F 12.9 °F 23.0 °F 93% 29.95 in 3.0 mi West 13.8 mph 20.7 mph N/A Snow Light Snow
7:14 AM 24.8 °F 11.9 °F 23.0 °F 93% 29.95 in 4.0 mi West 16.1 mph - N/A Snow Light Snow
7:35 AM 24.8 °F 11.5 °F 23.0 °F 93% 29.96 in 2.5 mi WNW 17.3 mph 23.0 mph N/A Snow Light Snow
7:55 AM 24.8 °F 13.4 °F 23.0 °F 93% 29.96 in 3.0 mi WNW 12.7 mph - N/A Snow Light Snow
8:14 AM 24.8 °F 13.4 °F 23.0 °F 93% 29.97 in 1.5 mi WNW 12.7 mph 16.1 mph N/A Snow Light Snow
8:35 AM 24.8 °F 13.4 °F 23.0 °F 93% 29.97 in 1.2 mi WNW 12.7 mph - N/A Snow Light Snow
8:55 AM 24.8 °F 12.9 °F 23.0 °F 93% 29.98 in 1.2 mi WNW 13.8 mph 19.6 mph N/A Snow Light Snow
9:14 AM 24.8 °F 13.4 °F 23.0 °F 93% 29.98 in 2.5 mi WNW 12.7 mph 21.9 mph N/A Snow Light Snow
9:35 AM 24.8 °F 12.9 °F 23.0 °F 93% 29.99 in 1.2 mi WNW 13.8 mph - N/A Snow Light Snow
9:55 AM 24.8 °F 12.4 °F 23.0 °F 93% 30.00 in 2.5 mi WNW 15.0 mph - N/A Snow Light Snow
10:15 AM 24.8 °F 12.9 °F 21.2 °F 86% 30.01 in 2.0 mi WNW 13.8 mph - N/A Snow Light Snow
10:35 AM 24.8 °F 15.3 °F 23.0 °F 93% 30.02 in 0.5 mi WNW 9.2 mph 16.1 mph N/A Snow Snow
11:15 AM 24.8 °F 13.4 °F 23.0 °F 93% 30.02 in 1.5 mi West 12.7 mph - N/A Snow Light Snow
11:35 AM 24.8 °F 11.9 °F 21.2 °F 86% 30.02 in 4.0 mi WNW 16.1 mph - N/A Snow Light Snow
11:54 AM 24.8 °F 13.4 °F 21.2 °F 86% 30.01 in 5.0 mi WNW 12.7 mph - N/A   Overcast
12:15 PM 26.6 °F 15.2 °F 21.2 °F 80% 30.01 in 5.0 mi WNW 13.8 mph 21.9 mph N/A Snow Light Snow
12:34 PM 26.6 °F 17.5 °F 23.0 °F 86% 30.01 in 1.8 mi WNW 9.2 mph - N/A Snow Light Snow
12:55 PM 26.6 °F 15.7 °F 23.0 °F 86% 30.01 in 5.0 mi WNW 12.7 mph 19.6 mph N/A Snow Light Snow
1:15 PM 26.6 °F 14.7 °F 23.0 °F 86% 30.01 in 1.8 mi WNW 15.0 mph - N/A Snow Light Snow
1:34 PM 26.6 °F 16.2 °F 23.0 °F 86% 30.01 in 4.0 mi WNW 11.5 mph 19.6 mph N/A   Overcast
1:55 PM 26.6 °F 13.8 °F 23.0 °F 86% 30.02 in 4.0 mi WNW 17.3 mph 25.3 mph N/A Snow Light Snow
2:15 PM 26.6 °F 14.7 °F 23.0 °F 86% 30.02 in 3.0 mi WNW 15.0 mph 20.7 mph N/A Snow Light Snow
2:34 PM 26.6 °F 13.8 °F 23.0 °F 86% 30.02 in 3.0 mi WNW 17.3 mph - N/A Snow Light Snow
2:55 PM 26.6 °F 16.2 °F 21.2 °F 80% 30.04 in 10.0 mi WNW 11.5 mph 20.7 mph N/A   Overcast
3:14 PM 26.6 °F 14.7 °F 21.2 °F 80% 30.05 in 5.0 mi WNW 15.0 mph 20.7 mph N/A Snow Light Snow
3:35 PM 26.6 °F 16.8 °F 23.0 °F 86% 30.06 in 1.5 mi NNW 10.4 mph - N/A Snow Light Snow
3:55 PM 24.8 °F 13.4 °F 21.2 °F 86% 30.08 in 0.8 mi NW 12.7 mph 21.9 mph N/A Snow Light Snow
4:14 PM 24.8 °F 14.6 °F 21.2 °F 86% 30.09 in 1.0 mi NNW 10.4 mph 17.3 mph N/A Snow Light Snow
4:35 PM 23.0 °F 10.6 °F 21.2 °F 93% 30.10 in 0.5 mi NW 13.8 mph 19.6 mph N/A Snow Snow
4:54 PM 23.0 °F 11.1 °F 21.2 °F 93% 30.11 in 1.0 mi NW 12.7 mph 20.7 mph N/A Snow Light Snow
5:15 PM 23.0 °F 11.1 °F 21.2 °F 93% 30.12 in 3.0 mi NW 12.7 mph 18.4 mph N/A Snow Light Snow
5:35 PM 23.0 °F 12.4 °F 21.2 °F 93% 30.13 in 5.0 mi NW 10.4 mph - N/A Snow Light Snow
5:54 PM 23.0 °F 13.1 °F 21.2 °F 93% 30.14 in 3.0 mi NW 9.2 mph 16.1 mph N/A Snow Light Snow
6:15 PM 23.0 °F 13.1 °F 21.2 °F 93% 30.15 in 7.0 mi NW 9.2 mph - N/A Snow Light Snow
6:35 PM 23.0 °F 11.7 °F 19.4 °F 86% 30.16 in 10.0 mi NW 11.5 mph - N/A   Overcast
6:54 PM 23.0 °F 11.7 °F 19.4 °F 86% 30.16 in 4.0 mi NW 11.5 mph - N/A Snow Light Snow
7:15 PM 23.0 °F 12.4 °F 19.4 °F 86% 30.17 in 7.0 mi NW 10.4 mph 17.3 mph N/A Snow Light Snow
7:35 PM 23.0 °F 12.4 °F 19.4 °F 86% 30.18 in 10.0 mi NW 10.4 mph 18.4 mph N/A   Overcast
7:54 PM 23.0 °F 12.4 °F 19.4 °F 86% 30.18 in 10.0 mi NW 10.4 mph 16.1 mph N/A   Overcast
8:15 PM 23.0 °F 11.7 °F 17.6 °F 80% 30.19 in 10.0 mi NW 11.5 mph - N/A   Mostly Cloudy
8:34 PM 21.2 °F 11.7 °F 17.6 °F 86% 30.20 in 10.0 mi NW 8.1 mph - N/A   Overcast
8:55 PM 21.2 °F 11.7 °F 17.6 °F 86% 30.20 in 10.0 mi WNW 8.1 mph - N/A   Mostly Cloudy
9:15 PM 21.2 °F 11.7 °F 17.6 °F 86% 30.20 in 10.0 mi NW 8.1 mph - N/A   Mostly Cloudy
9:34 PM 21.2 °F 11.7 °F 17.6 °F 86% 30.21 in 10.0 mi NW 8.1 mph - N/A   Mostly Cloudy
9:55 PM 21.2 °F 10.9 °F 15.8 °F 80% 30.21 in 10.0 mi NW 9.2 mph - N/A   Scattered Clouds
10:15 PM 19.4 °F 9.5 °F 14.0 °F 80% 30.22 in 10.0 mi NW 8.1 mph - N/A   Mostly Cloudy
10:35 PM 21.2 °F 11.7 °F 14.0 °F 74% 30.22 in 10.0 mi NW 8.1 mph - N/A   Overcast
10:55 PM 19.4 °F 9.5 °F 14.0 °F 80% 30.23 in 10.0 mi NNW 8.1 mph - N/A   Overcast
11:14 PM 19.4 °F 8.6 °F 12.2 °F 74% 30.24 in 10.0 mi NNW 9.2 mph - N/A   Mostly Cloudy
11:35 PM 19.4 °F 11.5 °F 12.2 °F 74% 30.24 in 10.0 mi NNW 5.8 mph - N/A   Clear
11:55 PM 17.6 °F 8.2 °F 12.2 °F 79% 30.24 in 10.0 mi NW 6.9 mph - N/A   Scattered Clouds